Regional Weather Roundup
Issued by NWS

Home | Current Version | Previous Version | Graphics & Text | Print | Product List | Glossary On
Versions: 1 2 3 4 5 6 7 8 9 10 11 12 13 14 15 16 17 18 19 20 21 22 23 24 25 26 27 28 29 30 31 32 33 34 35 36 37 38 39 40 41 42 43 44 45 46 47 48 49 50
000
ASUS43 KMKX 302000
RWRWI

WISCONSIN REGIONAL WEATHER ROUNDUP
NATIONAL WEATHER SERVICE MILWAUKEE/SULLIVAN WI
300 PM CDT THU JUL 30 2015

NOTE: "FAIR" INDICATES FEW OR NO CLOUDS BELOW 12,000 FEET WITH NO
SIGNIFICANT WEATHER AND/OR OBSTRUCTIONS TO VISIBILITY.

WIZ001-002-006>008-014>016-023>028-302100-
NORTHWEST WISCONSIN

CITY           SKY/WX    TMP DP  RH WIND       PRES   REMARKS
SUPERIOR ARPT  MOSUNNY   82  57  42 NW21      29.92F HX  82
ASHLAND        CLOUDY    76  60  57 N13       29.95R
HAYWARD        MOSUNNY   81  54  39 W10G21    29.97F HX  81
SIREN          SUNNY     82  53  37 W13G21    30.00F HX  81
CUMBERLAND     PTSUNNY   79  54  41 W15G22    30.01F
RICE LAKE      MOSUNNY   78  58  48 W12G17    30.02F
CHETEK         SUNNY     82  58  43 W12G20    30.01F HX  81
LADYSMITH      MOSUNNY   82  57  43 W12       30.01S HX  81
EAU CLAIRE     NOT AVBL
MENOMONIE      SUNNY     84  52  33 W18G25    30.03S HX  82
NEW RICHMOND   SUNNY     81  53  37 W16G23    30.04S HX  80
OSCEOLA        SUNNY     82  58  43 W21       30.05F HX  81
$$

WIZ003>005-009-010-017-018-302100-
NORTH CENTRAL WISCONSIN

CITY           SKY/WX    TMP DP  RH WIND       PRES   REMARKS
MANITOWISH WTR PTSUNNY   80  55  41 W13G21    29.96S HX  80
ARBOR VITAE    MOSUNNY   79  54  42 W9G21     29.96F
WOODRUFF       MOSUNNY   79  54  42 W9G21     29.96F
RHINELANDER    PTSUNNY   79  52  38 NW13G20   29.97F
EAGLE RIVER    PTSUNNY   74  49  40 NW9       29.96S
LAND O LAKES   PTSUNNY   75  48  38 W10G18    29.96S
PHILLIPS       MOSUNNY   79  58  48 SW10G21   29.97F HX  80
TOMAHAWK       MOSUNNY   80  53  38 W14G22    29.98S HX  80
MEDFORD        MOSUNNY   79  58  49 W15G23    30.00F HX  80
MERRILL        NOT AVBL
$$

WIZ029-030-035-036-043>047-302100-
CENTRAL WISCONSIN

CITY           SKY/WX    TMP DP  RH WIND       PRES   REMARKS
WAUSAU         CLOUDY    80  54  40 W16G30    29.97S HX  80
MOSINEE        MOSUNNY   82  55  39 W20G25    30.00F HX  82
MARSHFIELD     MOSUNNY   83  53  35 NW18G24   30.01S HX  82
STEVENS POINT  MOSUNNY   81  53  38 W14G28    29.99F HX  80
WAUPACA        MOSUNNY   84  51  31 W10G24    29.98S HX  82
WAUTOMA        NOT AVBL
WISC RAPIDS    MOSUNNY   85  52  32 NW16G24   30.01S HX  83
CAMP DOUGLAS   NOT AVBL
$$

WIZ011>013-019>022-031-037>040-048>050-302100-
NORTHEAST WISCONSIN

CITY           SKY/WX    TMP DP  RH WIND       PRES   REMARKS
ANTIGO         MOSUNNY   81  55  41 W15G23    29.98S HX  80
SHAWANO        MOSUNNY   83  53  34 W12G18    29.95S HX  82
OCONTO         MOSUNNY   85  53  33 NW12G21   29.91F HX  83
STURGEON BAY   SUNNY     84  54  34 W15G22    29.93F HX  83
GREEN BAY      MOSUNNY   85  58  39 W15       29.94S HX  84
MANITOWOC      NOT AVBL
APPLETON       PTSUNNY   82  52  34 W16G23    29.97F HX  81
CLINTONVILLE   MOSUNNY   84  50  30 W14       29.94F HX  82
OSHKOSH        MOSUNNY   85  54  34 W17G28    29.96F HX  83
$$

WIZ032>034-041-042-053>061-302100-
SOUTHWEST WISCONSIN

CITY           SKY/WX    TMP DP  RH WIND       PRES   REMARKS
LA CROSSE      SUNNY     86  55  34 W16       30.03S HX  84
SPARTA         SUNNY     84  48  28 W14G25    30.04S HX  82
VIROQUA        SUNNY     82  56  40 W13G21    30.07F HX  82
BOSCOBEL       MOSUNNY   90  54  29 W14G22    30.05S HX  88
PRAIRIE DU CHI SUNNY     87  51  28 W15G21    30.05F HX  85
PLATTEVILLE    SUNNY     85  58  40 W10       30.08S HX  84
$$

WIZ056-057-062-063-064-067-068-302100-
SOUTH CENTRAL WISCONSIN

CITY           SKY/WX    TMP DP  RH WIND       PRES   REMARKS
REEDSBURG      MOSUNNY   86  54  33 W18G25    30.03F HX  84
BARABOO/DELLS  MOSUNNY   86  47  25 W15G30    30.03F HX  83
LONE ROCK      NOT AVBL
MINERAL POINT  SUNNY     86  48  26 NW12G22   30.07F HX  83
MADISON        MOSUNNY   85  52  32 W14G22    30.02F HX  83
MIDDLETON      MOSUNNY   87  47  25 W16       30.04F HX  84
WATERTOWN      MOSUNNY   84  57  39 W14G24    30.02S HX  83
MONROE         SUNNY     86  52  30 W17G23    30.07S HX  84
JANESVILLE     MOSUNNY   88  48  25 NW14G26   30.04F HX  85
$$

WIZ051-052-058>065-066-070>072-302100-
SOUTHEAST WISCONSIN

CITY           SKY/WX    TMP DP  RH WIND       PRES   REMARKS
MILWAUKEE      MOSUNNY   86  51  29 W18G31    30.00F HX  84
WAUKESHA       MOSUNNY   84  52  32 W23G29    30.03F HX  82
MILWAUKEE/TIMM NOT AVBL
RACINE         MOSUNNY   87  53  31 NW15G22   30.02F HX  85
BURLINGTON     SUNNY     85  51  30 W16G22    30.03F HX  83
KENOSHA        SUNNY     85  57  38 W15G29    30.02F HX  84
FOND DU LAC    MOSUNNY   88  55  32 W18       29.97F HX  86
SHEBOYGAN      MOSUNNY   85  54  34 W16G28    29.96F HX  83
WEST BEND      MOSUNNY   82  50  32 W14G25    30.00S HX  81
JUNEAU         MOSUNNY   82  57  42 W16       30.02F HX  82
$$

LSZ147-162-302100-
LAKE SUPERIOR

STATION/POSITION TIME  TEMP    WIND        PRES    WAVE
                       AIR SEA DIR/SP/G            HT/PER
                 (UTC) (F)     (DEG/KT/KT) (MB)    (FT/S)
W MID LAKE BUOY  1850   60 52  240/ 12/ 14 1011.8F   2/ 5
DEVILS ISLAND    1900   65     260/ 20/ 23 1012.6F
PORT WING        1905   70     320/ 22/ 37 1013.9R
SAXON HARBOR     1942   71                 1013.5R
$$

LMZ867-665-643>646-302100-
LAKE MICHIGAN

STATION/POSITION TIME  TEMP    WIND        PRES    WAVE
                       AIR SEA DIR/SP/G            HT/PER
                 (UTC) (F)     (DEG/KT/KT) (MB)    (FT/S)
CHAMBERS ISLAND  1900   80     210/  3/ 13 1011.9S
S GREEN BAY BUOY 1800   72 66  270/ 12/ 16 1014.6
N MID LAKE BUOY  1850   71 69  230/ 10/ 10 1011.2R   3/ 5
NORTHPORT PIER   1900   81     300/  8/ 14 1011.9S
SISTER BAY       1914   81     300/ 14/ 16   N/A
ALGOMA LAKESHORE 1927          310/ 15/ 25   N/A
KEWAUNEE LAKESHO 1900   82     290/  7/ 15 1013.0F
SHEBOYGAN LAKESH 1900   82     290/ 21/ 27 1014.7F
PORT WASHINGTON  1900   85     280/ 11/ 22 1015.6
ATWATER BUOY     1900   76 58  280/ 14/ 17 1017.2F
MILWAUKEE LAKESH 1900   83     300/ 14/ 22   N/A
KENOSHA   LAKESH 1900   84     280/ 16/ 22 1015.9S
$$

TC  - TEMPERATURE IN CELSIUS
VSB - VISIBILITY IN STATUTE MILES
WCI - WIND CHILL INDEX
HX  - HEAT INDEX



USA.gov is the U.S. government's official web portal to all federal, state and local government web resources and services.